EST,Max TemperatureF,Mean TemperatureF,Min TemperatureF,Max Dew PointF,MeanDew PointF,Min DewpointF,Max Humidity, Mean Humidity, Min Humidity, Max Sea Level PressureIn, Mean Sea Level PressureIn, Min Sea Level PressureIn, Max VisibilityMiles, Mean VisibilityMiles, Min VisibilityMiles, Max Wind SpeedMPH, Mean Wind SpeedMPH, Max Gust SpeedMPH,PrecipitationIn, CloudCover, Events, WindDirDegrees
2012-12-1,46,43,42,43,41,39,93,89,87,30.55,30.52,30.48,10,10,10,7,7,,0.00,8,,82
2012-12-2,55,52,48,52,48,45,93,88,82,30.28,30.24,30.22,10,8,3,12,7,,0.00,6,,223
2012-12-3,55,53,46,48,46,43,88,82,72,30.26,30.21,30.19,10,9,8,16,10,,0.00,0,,315
2012-12-4,57,52,48,55,53,48,100,97,94,30.32,30.26,30.18,6,4,2,12,5,,0.00,7,Rain,188
2012-12-5,55,53,48,46,41,36,77,64,54,30.04,29.99,29.97,10,10,10,15,12,,0.00,2,,311
2012-12-6,37,34,32,23,22,21,69,59,52,30.35,30.32,30.30,10,10,10,8,6,,0.00,0,,333
2012-12-7,48,44,41,45,41,36,93,84,76,30.25,30.16,30.11,10,10,10,4,0,,0.00,7,Rain,-1
2012-12-8,55,53,50,54,51,48,100,96,88,29.92,29.90,29.88,10,6,1,12,3,,0.00,8,,263
2012-12-9,48,47,44,43,42,39,93,81,71,30.25,30.24,30.23,10,10,10,4,2,,0.00,7,Rain,-1
2012-12-10,60,58,57,59,58,57,100,97,94,29.84,29.72,29.62,3,2,0,18,14,,0.00,8,Fog-Rain,227
2012-12-11,48,46,44,41,37,34,87,73,66,30.04,29.94,29.86,10,10,10,14,10,,0.00,4,,322
2012-12-12,42,40,37,27,26,25,61,57,49,30.40,30.38,30.36,10,10,10,9,6,,0.00,5,,350
2012-12-13,44,43,37,28,28,27,70,57,53,30.47,30.40,30.31,10,10,10,7,4,,0.00,0,,355
2012-12-14,48,44,39,34,31,28,70,59,53,30.27,30.20,30.13,10,10,10,13,7,,0.00,0,,246
2012-12-15,46,44,44,32,32,32,61,59,57,30.31,30.29,30.27,10,10,10,12,12,,0.00,0,,65
2012-12-16,42,42,42,43,41,37,100,94,81,30.19,30.09,30.01,10,2,1,16,15,26,0.00,8,Rain,107
2012-12-17,48,47,46,48,47,45,100,97,93,29.91,29.87,29.82,2,1,1,12,10,,0.00,8,Rain,72
2012-12-18,53,52,48,52,48,45,94,89,82,29.50,29.49,29.47,10,9,5,12,11,,0.00,4,,270
2012-12-19,48,46,44,34,32,30,66,59,50,29.91,29.76,29.69,10,10,10,34,17,,0.00,0,,327
2012-12-20,44,42,39,36,33,30,76,72,66,30.23,30.18,30.12,10,10,10,8,6,,0.00,2,,340
2012-12-21,57,50,42,55,46,34,94,84,70,29.32,29.23,29.16,10,6,1,33,26,56,0.00,6,Rain,217
2012-12-22,39,38,37,28,25,21,70,58,49,29.57,29.52,29.49,10,10,10,24,20,33,0.00,4,,301
2012-12-23,41,40,39,28,27,25,65,60,56,29.95,29.89,29.86,10,10,10,18,13,,0.00,3,,282
2012-12-24,39,36,32,28,26,25,75,63,56,30.10,30.07,30.05,10,10,10,5,2,,0.00,2,,-1
2012-12-25,,,,,,,,,,,,,,,,,,,,,,
2012-12-26,,,,,,,,,,,,,,,,,,,,,,
2012-12-27,44,40,35,45,38,32,100,96,87,29.52,29.36,29.24,10,4,1,18,12,29,0.00,8,Rain,314
2012-12-28,39,34,32,27,26,23,70,67,61,30.01,29.98,29.97,10,10,10,18,16,,0.00,0,,319
2012-12-29,41,37,33,39,35,30,100,92,81,29.92,29.75,29.56,10,5,1,16,7,,0.00,8,Rain,57
2012-12-30,35,32,30,23,20,16,69,61,48,29.97,29.84,29.76,10,10,10,23,21,32,0.00,1,,319
2012-12-31,37,32,32,25,24,23,75,69,60,30.15,30.09,29.98,10,10,10,16,13,,0.00,7,,276